Flag for Romania

Past Weather in Bacău, Romania — Yesterday and Last 2 Weeks

Now
54 °F

Cool.


Feels Like: 54 °F
Forecast: 76 / 45 °F
Wind: 1 mph from North

Location: Bacau Airport
Current Time: Sep 19, 2020 at 10:29:59 pm
Latest Report: Sep 19, 2020 at 10:00 pm
Visibility: N/A
Pressure30.18 "Hg
Humidity: 58%
Dew Point: 39 °F
Location of BacăuLocation

Past Weather in Bacău — Graph

°F

Bacău Temperature Yesterday

Maximum temperature yesterday: 72 °F (at 12:00 am)
Minimum temperature yesterday: 55 °F (at 11:00 pm)
Average temperature yesterday: 62 °F

High & Low Weather Summary for the Past Weeks

 TemperatureHumidityPressure
High86 °F (Sep 7, 2:30 pm)100% (Sep 6, 7:00 am)30.39 "Hg (Sep 6, 7:00 am)
Low45 °F (Sep 19, 5:30 am)28% (Sep 18, 6:00 pm)29.95 "Hg (Sep 10, 4:30 pm)
Average68 °F64%30.17 "Hg
* Reported Sep 4 9:00 pm — Sep 19 9:00 pm, Bacău. Weather by CustomWeather, © 2020

Note: Actual official high and low records may vary slightly from our data, if they occured in-between our weather recording intervals... More about our weather records

Bacău Weather History for the Previous 24 Hours

Scroll right to see more
 ConditionsComfort  
Time TempWeatherWind HumidityBarometerVisibility
9:00 pm
Sat, Sep 19
55 °FRefreshingly cool.3 mph51%30.18 "HgN/A
8:30 pm57 °FRefreshingly cool.3 mph48%30.18 "HgN/A
8:00 pm59 °FPassing clouds.3 mph45%30.18 "HgN/A
7:30 pm63 °FPassing clouds.3 mph37%30.18 "HgN/A
7:00 pm66 °FPassing clouds.3 mph32%30.18 "HgN/A
6:30 pm68 °FPassing clouds.6 mph30%30.18 "HgN/A
6:00 pm68 °FPassing clouds.6 mph30%30.18 "HgN/A
5:30 pm70 °FPassing clouds.7 mph29%30.18 "HgN/A
5:00 pm70 °FPassing clouds.7 mph31%30.18 "HgN/A
4:00 pm70 °FPassing clouds.7 mph31%30.21 "HgN/A
3:30 pm70 °FSunny.8 mph29%30.21 "Hg10 mi
3:00 pm70 °FPassing clouds.8 mph31%30.21 "HgN/A
2:30 pm68 °FPassing clouds.10 mph33%30.24 "HgN/A
2:00 pm68 °FPassing clouds.7 mph35%30.24 "HgN/A
1:30 pm66 °FPassing clouds.10 mph37%30.24 "HgN/A
1:00 pm66 °FPassing clouds.8 mph35%30.27 "HgN/A
12:30 pm64 °FPassing clouds.10 mph43%30.27 "HgN/A
12:00 pm63 °FPassing clouds.8 mph49%30.27 "HgN/A
11:30 am63 °FPassing clouds.6 mph49%30.30 "HgN/A
11:00 am63 °FPassing clouds.6 mph49%30.30 "HgN/A
10:30 am59 °FPassing clouds.6 mph59%30.30 "HgN/A
10:00 am57 °FSunny.2 mph59%30.30 "Hg10 mi
9:30 am55 °FSunny.1 mph67%30.33 "Hg10 mi
9:00 am52 °FSunny.2 mph72%30.33 "Hg10 mi
8:30 am50 °FSunny.No wind76%30.30 "Hg10 mi
8:00 am48 °FSunny.No wind82%30.30 "Hg10 mi
7:30 am45 °FQuite cool.1 mph87%30.30 "HgN/A
7:00 am45 °FQuite cool.1 mph81%30.30 "HgN/A
6:30 am45 °FQuite cool.2 mph81%30.30 "HgN/A
6:00 am45 °FQuite cool.2 mph87%30.30 "HgN/A
5:30 am45 °FQuite cool.No wind81%30.30 "HgN/A
5:00 am48 °FCool.5 mph76%30.30 "HgN/A
4:30 am50 °FCool.6 mph71%30.30 "HgN/A
4:00 am52 °FCool.8 mph67%30.30 "HgN/A
3:30 am52 °FCool.8 mph67%30.30 "HgN/A
3:00 am54 °FCool.9 mph63%30.30 "HgN/A
2:30 am54 °FCool.10 mph63%30.30 "HgN/A
2:00 am54 °FCool.12 mph63%30.30 "HgN/A
1:30 am55 °FRefreshingly cool.14 mph59%30.30 "HgN/A
1:00 am55 °FRefreshingly cool.13 mph59%30.30 "HgN/A
12:30 am55 °FRefreshingly cool.15 mph55%30.30 "HgN/A
12:00 am55 °FRefreshingly cool.13 mph55%30.30 "HgN/A
11:30 pm
Fri, Sep 18
55 °FRefreshingly cool.12 mph55%30.27 "HgN/A
11:00 pm55 °FRefreshingly cool.12 mph55%30.27 "HgN/A
10:30 pm57 °FRefreshingly cool.15 mph51%30.27 "HgN/A
10:00 pm59 °FRefreshingly cool.15 mph45%30.27 "HgN/A
Weather by CustomWeather, © 2020

See weather overview